Regional Weather Roundup
Issued by NWS Sterling, VA

Home | Current Version | Previous Version | Graphics & Text | Print | Product List | Glossary On
Versions: 1 2 3 4 5 6 7 8 9 10 11 12 13 14 15 16 17 18 19 20 21 22 23 24 25 26 27 28 29 30 31 32 33 34 35 36 37 38 39 40 41 42 43 44 45 46 47 48 49 50
000
ASUS41 KLWX 021510
RWRLWX

REGIONAL WEATHER ROUNDUP
NATIONAL WEATHER SERVICE BALTIMORE MD/WASHINGTON DC
1100 AM EDT TUE SEP 02 2014

Note: "FAIR" indicates few or no clouds below 12,000 feet
with no significant weather and/or obstructions to visibility.
 TC=TEMPERATURE CELSIUS

 * =Non NWS site. Station does not report precipitation (e.g. rain,
    snow, etc.), thunder, or fog.

DCZ001-MDZ009-015-VAZ040>042-051-053>054-021600-
WASHINGTON METRO

CITY           SKY/WX    TMP DP  RH WIND       PRES   REMARKS
WASHINGTON NAT MOSUNNY   89  72  56 S8        29.99R HX  96
DULLES         PTSUNNY   70  66  88 SW12      29.97F
ANDREWS AFB    SUNNY     89  71  56 W8        29.99S HX  95
QUANTICO       MOSUNNY   83  75  77 S7        30.00R HX  90
COLLEGE PARK*  SUNNY     90  68  48 CALM      29.98R HX  93
LEESBURG*      SUNNY     88  73  62 SW8       30.00S HX  96
MANASSAS*      SUNNY     86  73  66 SW3       30.00R HX  93
GAITHERSBURG*  SUNNY     84  72  65 W8        30.03S

$$

MDZ006>007-011-014-021600-
BALTIMORE METRO

CITY           SKY/WX    TMP DP  RH WIND       PRES   REMARKS
BWI AIRPORT    MOSUNNY   88  71  57 VRB7      29.97S HX  94
MD SCIENCE CTR   N/A     89  68  49 MISG      29.97S HX  93
MARTIN STATE   MOSUNNY   88  72  58 W9          N/A  HX  94
ANNAPOLIS      SUNNY     88  69  53 VRB3      29.97S HX  92
FORT MEADE*    SUNNY     84  72  65 SW6       30.01R

$$

MDZ012-015-019>023-021600-
MARYLAND EASTERN SHORE

CITY           SKY/WX    TMP DP  RH WIND       PRES   REMARKS
OCEAN CITY     SUNNY     89  72  56 SW8       29.99S HX  96
SALISBURY      SUNNY     91  71  51 SW9       29.99S HX  97
BAY BRIDGE AP*   N/A     86  70  58 SW5       29.98R HX  90
CAMBRIDGE*     SUNNY     90  72  55 W6        29.98S HX  96

$$

MDZ017>025-021600-
SOUTHERN MARYLAND

CITY           SKY/WX    TMP DP  RH WIND       PRES   REMARKS
PATUXENT RIVER MOSUNNY   90  69  50 W7        29.98S HX  94
ST INIGOES     SUNNY     86  70  58 W6        29.99S HX  90
LEONARDTOWN*   SUNNY     88  68  51 SW6       30.01S HX  91

$$

MDZ003>005-021600-
NORTH CENTRAL MARYLAND

CITY           SKY/WX    TMP DP  RH WIND       PRES   REMARKS
FREDERICK*     SUNNY     88  70  55 NW7G16    30.01S HX  92
HAGERSTOWN APT PTSUNNY   83  68  60 VRB5      29.99S
WESTMINSTER*   SUNNY     82  72  69 SW7       30.01R

$$

MDZ501>502-021600-
WESTERN MARYLAND

CITY           SKY/WX    TMP DP  RH WIND       PRES   REMARKS
OAKLAND*       PTSUNNY   70 N/A N/A W9        30.11R
CUMBERLAND*    PTSUNNY   86  68  54 CALM      30.02F

$$

VAZ025>031-021600-
SHENANDOAH VALLEY

CITY           SKY/WX    TMP DP  RH WIND       PRES   REMARKS
WINCHESTER*    PTSUNNY   82  66  57 S5        30.00S
STAUNTON*      SUNNY     87  65  47 W7G20     30.06F

$$

WVZ021-048>050-054>055-021600-
EASTERN WEST VIRGINIA PANHANDLE

CITY           SKY/WX    TMP DP  RH WIND       PRES   REMARKS
MARTINSBURG    PTSUNNY   87  66  49 W8        29.99S
PETERSBURG*    NOT AVBL

$$

VAZ036>039-050-021600-
CENTRAL FOOTHILLS

CITY           SKY/WX    TMP DP  RH WIND       PRES   REMARKS
CHARLOTTESVILL SUNNY     87  69  54 VRB5      30.02S HX  91
ORANGE*        SUNNY     88  70  55 S6        30.02F HX  92

$$

VAZ055>057-021600-
NORTH AND CENTRAL PIEDMONT

CITY           SKY/WX    TMP DP  RH WIND       PRES   REMARKS
FREDERICKSBRG* SUNNY     90  70  51 SW10      29.99S HX  94
STAFFORD*      SUNNY     86  71  61 W6        30.04S HX  92

$$

NCZ024-NYZ072-PAZ021-071-VAZ022-071-021600-
OTHER REGIONAL OBSERVATIONS

CITY           SKY/WX    TMP DP  RH WIND       PRES   REMARKS
NEW YORK CITY  SUNNY     86  70  58 VRB3      29.95F HX  90
PHILADELPHIA   MOSUNNY   88  70  55 SW10      29.96S HX  93
PITTSBURGH     CLOUDY    75  69  81 SW8       29.98F
ROANOKE        MOSUNNY   83  68  60 W12       30.09F
RICHMOND       MOSUNNY   92  69  47 SW8       30.01F HX  97
RALEIGH        MOSUNNY   87  72  60 VRB3      30.08R HX  93

$$

ANZ530>537-021600-
MARINE OBSERVATIONS

STATION/POSITION TIME  TEMP    WIND        PRES
                       AIR SEA DIR/SP/G
                 (UTC) (F)     (DEG/KT/KT) (MB)
THOMAS PT LIGHT  1500   83 79  230/  4/  5 1016.2R
BALT KEY BRIDGE  1500          260/ 10/ 12 1014.9R
COVE POINT       1500   87     270/  5/  8 1015.2F
LEWISETTA        1500   85 81  260/  6/  7 1015.3F
SOLOMONS ISLAND  1500      80                N/A
PINEY POINT      1500          140/  2/  2   N/A

$$



USA.gov is the U.S. government's official web portal to all federal, state and local government web resources and services.